Toluca Jose Maria, Mexico

12:08 PM CDT on September 26, 2017 (GMT -0500)
Lic Adolfo Lopez Mateos International

Weather History for MMTO - March, 2013

Change the Weather History Date:

Thursday, March 7, 2013

  Actual Average Record
Temperature  
Mean Temperature 52 °F -  
Max Temperature 71 °F 71 °F 80 °F (2003)
Min Temperature 33 °F 36 °F 26 °F (2008)
Degree Days  
Heating Degree Days 13    
Growing Degree Days 2 (Base 50)    
Moisture  
Dew Point 27 °F    
Average Humidity 40    
Maximum Humidity 70    
Minimum Humidity 15    
Precipitation  
Precipitation 0.00 in - - ()
Sea Level Pressure  
Sea Level Pressure 30.24 in    
Wind  
Wind Speed 3 mph ()    
Max Wind Speed 16 mph    
Max Gust Speed -    
Visibility 5.7 miles    
Events      
Averages and records for this station are not official NWS values.
T = Trace of Precipitation, MM = Missing Value Source: Averaged Metar Reports

Daily Weather History Graph

Daily Weather History Graph

Search for Another Location

Airport or City:

Trip Planner

Search our weather history database for the weather conditions in past years. The results will help you decide how hot, cold, wet, or windy it might be!

Date:

Astronomy

Mar. 07, 2013 Rise Set
Actual Time 6:52 AM CST 6:45 PM CST
Civil Twilight 6:30 AM CST 7:07 PM CST
Nautical Twilight 6:05 AM CST 7:33 PM CST
Astronomical Twilight 5:40 AM CST 7:58 PM CST
Moon 3:25 AM CST (3/7) 3:01 PM CST (3/7)
Length of Visible Light 12h 36m
Length of Day
11h 52m
Waning Crescent, 20% of the Moon is Illuminated
Mar 7
Waning Crescent
Mar 11
New
Mar 19
First Quarter
Mar 27
Full
Apr 2
Last Quarter

Hourly Weather History & Observations

Time (CST) Temp. Windchill Dew Point Humidity Pressure Visibility Wind Dir Wind Speed Gust Speed Precip Events Conditions
12:45 AM 42.8 °F - 24.8 °F 49% 30.43 in 5.0 mi Calm Calm - N/A   Clear
1:45 AM 39.2 °F 35.9 °F 23.0 °F 52% 30.42 in 4.0 mi SSE 4.6 mph - N/A   Clear
2:45 AM 39.2 °F - 26.6 °F 61% 29.90 in 3.0 mi Calm Calm - N/A   Clear
3:45 AM 39.2 °F - 26.6 °F 61% 30.39 in 3.0 mi Calm Calm - N/A   Clear
4:45 AM 39.2 °F - 24.8 °F 56% 30.39 in 3.0 mi Calm Calm - N/A   Clear
5:45 AM 33.8 °F - 24.8 °F 70% 29.98 in 3.0 mi Calm Calm - N/A   Clear
6:45 AM 33.8 °F - 24.8 °F 70% 30.41 in 4.0 mi Calm Calm - N/A   Clear
7:42 AM 35.6 °F - 26.6 °F 70% 30.44 in 4.0 mi Calm Calm - N/A   Clear
8:44 AM 46.4 °F - 28.4 °F 50% 30.02 in 5.0 mi Calm Calm - N/A   Clear
9:43 AM 59.0 °F - 28.4 °F 31% 30.46 in 6.0 mi SSE 2.3 mph - N/A   Partly Cloudy
10:46 AM 66.2 °F - 23.0 °F 19% 30.45 in 6.0 mi ESE 6.9 mph - N/A   Partly Cloudy
11:40 AM 66.2 °F - 23.0 °F 19% 29.92 in 7.0 mi South 5.8 mph - N/A   Scattered Clouds
12:45 PM 68.0 °F - 23.0 °F 18% 30.40 in 7.0 mi SE 8.1 mph - N/A   Scattered Clouds
1:47 PM 71.6 °F - 21.2 °F 15% 30.37 in 7.0 mi NE 5.8 mph - N/A   Mostly Cloudy
2:44 PM 69.8 °F - 26.6 °F 20% 29.84 in 7.0 mi SE 16.1 mph - N/A   Mostly Cloudy
3:44 PM 69.8 °F - 26.6 °F 20% 30.33 in 7.0 mi South 13.8 mph - N/A   Mostly Cloudy
4:44 PM 68.0 °F - 28.4 °F 23% 30.33 in 7.0 mi SSW 12.7 mph - N/A   Mostly Cloudy
5:45 PM 68.0 °F - 28.4 °F 23% 29.89 in 7.0 mi SSW 11.5 mph - N/A   Scattered Clouds
6:47 PM 64.4 °F - 30.2 °F 28% 30.36 in 7.0 mi WSW 6.9 mph - N/A   Scattered Clouds
7:44 PM 60.8 °F - 30.2 °F 31% 30.38 in 7.0 mi WNW 3.5 mph - N/A   Partly Cloudy
8:44 PM 57.2 °F - 30.2 °F 36% 29.94 in 7.0 mi NW 3.5 mph - N/A   Clear
9:45 PM 50.0 °F - 30.2 °F 47% 30.43 in 7.0 mi NNE 6.9 mph - N/A   Clear
10:45 PM 50.0 °F - 30.2 °F 47% 30.43 in 7.0 mi NW 3.5 mph - N/A   Clear
11:45 PM 48.2 °F - 30.2 °F 50% 29.89 in 7.0 mi Calm Calm - N/A   Clear